This demonstration page uses our WeatherBlox Daily Observations layout. Learn more.

Left ArrowRight Arrow

47.50024, -111.30081

Hourly Observations for May 11, 2017

Temp ( °F °C ) Dew Point ( °F °C ) Humidity (%) Winds ( mph kmh ) Pressure ( in mb ) Visibility ( mi km ) Precip ( " mm )
12:53 am 00:53 Clear 50 10 41 5 71 71 SE 5 7 29.92 1013 10 16 0.00 0.00
1:53 am 01:53 Clear 48 8.9 40 4.4 74 74 SW 7 11 29.93 1014 10 16 0.00 0.00
2:53 am 02:53 Clear 48 8.9 42 5.6 80 80 SSW 8 13 29.94 1014 10 16 0.00 0.00
3:53 am 03:53 Clear 46 7.8 41 5 83 83 SW 10 17 29.96 1014 10 16 0.00 0.00
4:53 am 04:53 Clear 45 7.2 39 3.9 80 80 SW 9 15 29.95 1014 10 16 0.00 0.00
5:53 am 05:53 Sunny 44 6.7 38 3.3 79 79 SSW 10 17 29.96 1015 10 16 0.00 0.00
6:53 am 06:53 Sunny 50 10 41 5 71 71 SSW 8 13 29.96 1014 10 16 0.00 0.00
7:53 am 07:53 Sunny 55 12.8 45 7.2 69 69 Calm 29.96 1015 10 16 0.00 0.00
8:53 am 08:53 Sunny 61 16.1 42 5.6 50 50 SW 6 9 29.95 1014 10 16 0.00 0.00
9:53 am 09:53 Sunny 65 18.3 44 6.7 47 47 S 8 13 29.96 1014 10 16 0.00 0.00
10:53 am 10:53 Sunny 69 20.6 45 7.2 42 42 S 6 9 29.93 1014 10 16 0.00 0.00
11:53 am 11:53 Sunny 73 22.8 41 5 32 32 VRB 3 6 29.91 1013 10 16 0.00 0.00
12:53 pm 12:53 Sunny 76 24.4 36 2.2 23 23 VRB 6 9 29.90 1013 10 16 0.00 0.00
1:53 pm 13:53 Sunny 77 25 38 3.3 24 24 Calm 29.89 1012 10 16 0.00 0.00
2:53 pm 14:53 Sunny 79 26.1 38 3.3 23 23 SE 8 13 29.86 1011 10 16 0.00 0.00
3:53 pm 15:53 Sunny 80 26.7 34 1.1 19 19 ESE 10 17 29.84 1011 10 16 0.00 0.00
4:53 pm 16:53 Sunny 78 25.6 36 2.2 22 22 ESE 5 7 29.84 1010 10 16 0.00 0.00
5:53 pm 17:53 Sunny 75 23.9 38 3.3 26 26 undefined N/A 29.85 1011 10 16 0.00 0.00
6:53 pm 18:53 Mostly Sunny 72 22.2 43 6.1 35 35 S 7 11 29.85 1011 10 16 0.00 0.00
7:53 pm 19:53 Mostly Cloudy 67 19.4 43 6.1 42 42 SSW 9 15 29.86 1011 10 16 0.00 0.00
8:53 pm 20:53 Cloudy 66 18.9 44 6.7 45 45 SW 8 13 29.84 1011 10 16 0.00 0.03
9:53 pm 21:53 Clear 62 16.7 44 6.7 52 52 S 9 15 29.83 1010 10 16 0.00 0.00
10:53 pm 22:53 Clear 60 15.6 44 6.7 56 56 ESE 6 9 29.80 1009 10 16 0.00 0.00
11:53 pm 23:53 Clear 61 16.1 42 5.6 50 50 ESE 13 20 29.78 1009 10 16 0.00 0.00

Powered by AerisWeather